{"data":{"norad_id":61668,"intl_designator":"2024-193H","name":"STARLINK-32441","alt_names":[],"object_type":"PAYLOAD","status":"ACTIVE","operator":null,"country":"US","launch_date":"2024-10-26","launch_site_code":"AFETR","launch_vehicle":null,"mission":null,"orbit_class":"UNKNOWN","rcs_meters":null,"size_class":null,"mass_kg":null,"dimensions":null,"purposes":["comms"],"wikipedia_slug":null,"has_3d_model":false,"image_url":null,"decayed_at":null,"tle_current":{"epoch":"2026-09-21T03:39:41.445792Z","epoch_age_seconds":135645,"freshness":"FRESH","line1":"1 61668U 24193H   26264.15256303  .00001239  00000+0  47807-4 0  9995","line2":"2 61668  53.1603 262.3406 0001233  82.7216 277.3926 15.34393627106461","mean_motion":15.34393627,"eccentricity":0.0001233,"inclination_deg":53.1603,"raan_deg":262.3406,"arg_perigee_deg":82.7216,"mean_anomaly_deg":277.3926,"bstar":4.7807e-5,"rev_number":10646,"period_min":93.848147871641,"perigee_km":461.87870423455,"apogee_km":463.56566010888,"semimajor_km":6840.8591821717,"source":"CELESTRAK","updated_at":"2026-09-22T09:00:49.401240Z"}}}